Regional Weather Roundup
Issued by NWS Upton, NY

Home | Current Version | Previous Version | Text Only | Print | Product List | Glossary On
Versions: 1 2 3 4 5 6 7 8 9 10 11 12 13 14 15 16 17 18 19 20 21 22 23 24 25 26 27 28 29 30 31 32 33 34 35 36 37 38 39 40 41 42 43 44 45 46 47 48 49 50
000
ASUS41 KOKX 020505
RWROKX
REGIONAL WEATHER ROUNDUP
NATIONAL WEATHER SERVICE NEW YORK NY
100 AM EDT TUE SEP 02 2014

NOTE: "FAIR" INDICATES FEW OR NO CLOUDS BELOW 12,000 FEET WITH NO
SIGNIFICANT WEATHER AND/OR OBSTRUCTIONS TO VISIBILITY.

NYZ071-072-176-178-NJZ106-104-020600-
NEW YORK CITY METRO AREA


CITY           SKY/WX    TMP DP  RH WIND       PRES   REMARKS
CENTRAL PARK   CLEAR     79  72  79 VRB5      29.96F
LAGUARDIA APRT CLEAR     81  73  76 S8        29.93S
KENNEDY INTL   PTCLDY    77  73  87 SW3       29.94F
NEWARK/LIBERTY CLEAR     79  73  82 SW5       29.93F
BRNX BOT. GARD   N/A     81  72  74 W3        29.94F
TETERBORO      CLEAR     79  71  76 CALM      29.92F
$$

NYZ177-179-078>081-020600-
LONG ISLAND NEW YORK

CITY           SKY/WX    TMP DP  RH WIND       PRES   REMARKS
FARMINGDALE    CLEAR     76  72  87 SW3       29.95F
ISLIP          PTCLDY    76  72  87 S5        29.93F
SHIRLEY        MOCLDY    76  73  91 S6        29.95F
WESTHAMPTON    CLOUDY    75  72  90 SW5       29.96F
MONTAUK POINT    N/A     74  72  93 VRB6      29.96F
$$

NYZ052-065-067-020600-
HUDSON VALLEY

CITY           SKY/WX    TMP DP  RH WIND       PRES   REMARKS
WHITE PLAINS   CLEAR     73  71  93 CALM      29.94F FOG
NEWBURGH       CLEAR     75  72  88 CALM      29.96S
MONTGOMERY     CLEAR     70  69  97 CALM      29.94F FOG
POUGHKEEPSIE   PTCLDY    72  70  93 SE3       29.92S FOG
ALBANY         MOCLDY    77  70  79 S6        29.90F
$$

NJZ001-105-106-008-010-013-015-019>022-104-020600-
NEW JERSEY

CITY           SKY/WX    TMP DP  RH WIND       PRES   REMARKS
NEWARK/LIBERTY CLEAR     79  73  82 SW5       29.93F
TETERBORO      CLEAR     79  71  76 CALM      29.92F
CALDWELL       CLEAR     76  70  82 CALM      29.94F
MORRISTOWN     CLEAR     72  68  88 CALM      29.94F FOG
SOMERVILLE     CLEAR     72  70  93 CALM      29.92F FOG
LINDEN         FAIR      83  76  81 CALM      29.95F HX  91
SUSSEX         CLEAR     72  68  87 CALM      29.95S FOG
ANDOVER          N/A     70  69  97 CALM      29.96F
TRENTON        CLEAR     75  72  90 S3        29.94F
MILLVILLE      CLEAR     75  73  93 W3        29.96F
ATLANTIC CITY  CLEAR     77  73  87 MISG      29.95F
WRIGHTSTOWN    CLEAR     74  74  99 CALM      29.93F
TOMS RIVER     CLEAR     73  72  94 CALM      29.96S
BELMAR         CLEAR     73  70  88 SW3       29.95F
$$

PAZ047>061-062-071-020600-
EASTERN PENNSYLVANIA

CITY           SKY/WX    TMP DP  RH WIND       PRES   REMARKS
PHILADELPHIA   CLEAR     78  74  87 CALM      29.95F
ALLENTOWN      MOCLDY    75  70  84 CALM      29.95F
SCRANTON       PTCLDY    71  68  90 CALM      29.95F
$$

CTZ002-004>006-009-010-012-RIZ004-006-007-MAZ004-011-015-020600-
SOUTHERN NEW ENGLAND
 IN CT

CITY           SKY/WX    TMP DP  RH WIND       PRES   REMARKS
BRADLEY INTL   MOCLDY    76  71  85 S6        29.92F
HARTFORD       CLOUDY    75  71  87 S6        29.92F
DANBURY        MOCLDY    72  70  93 CALM      29.96F
WTRBRY/OXFORD  PTCLDY    73  68  83 CALM      29.98F
BRIDGEPORT     PTCLDY    77  73  87 SW6       29.94S
MERIDEN        PTCLDY    73  71  93 CALM      29.94F
NEW HAVEN      CLEAR     77  72  84 S3        29.93F
CHESTER        FAIR      73  72  94 SW5       29.96F
GROTON         CLOUDY    72  72 100 S3        29.94F
WILLIMANTIC    CLOUDY    74  70  87 CALM      29.95F

 IN RI

CITY           SKY/WX    TMP DP  RH WIND       PRES   REMARKS
PROVIDENCE     MOCLDY    73  70  90 S5        29.96S
BLOCK ISLAND   CLOUDY    72  70  94 SW10      29.96F
WESTERLY       CLOUDY    73  71  93 CALM      29.96S

 IN MA

CITY           SKY/WX    TMP DP  RH WIND       PRES   REMARKS
BOSTON         PTCLDY    77  71  82 SW12      29.93S
WORCESTER      CLEAR     71  69  93 W7        29.98F
WESTFIELD      CLOUDY    74  71  91 CALM      29.92F
PROVINCETOWN   CLEAR     70  68  94 SW8       29.94S
NANTUCKET      FOG       70  69  97 SW10      29.96F VSB 1/4
$$

ANZ330-335-338-340-345-350-353-355-020600-
COASTAL MARINE OBSERVATIONS


STATION/POSITION TIME  SKY/WX   TEMP    WIND        PRES    VSBY  WAVE
                                AIR SEA DIR/SP/G                  HT/PER
                 (UTC)          (F)     (DEG/KT/KT) (MB)    (MI)  (FT/S)
NY HARB ENTRANCE NOT AVBL
4S FIRE IS       NOT AVBL
23SW MTP         0500                                 N/A           3/ 6
HUDSON CANYON    0500            75 74  220/ 12/ 14 1014.6          3/ 5
EXECUTION ROCKS  0500            78 75  190/  8/  8   N/A
WESTERN LI SOUND 0500            78     210/  4/  6   N/A           0
CENTRAL LI SOUND 0400            74 74  240/  4/  6   N/A           1/ 3
EASTERN LI SOUND 0400            72 69   CALM  /  2   N/A
ROBBINS REEF     0400            79     180/  5/  6   N/A
$$


>>>>>>>>>>>>>>>>>>>>>>>>>>>> KEY <<<<<<<<<<<<<<<<<<<<<<<<<<<
>                                                          <
>     SKY/WX - SKY CONDITION/PRESENT WEATHER               <
>     TMP    - TEMPERATURE IN FAHRENHEIT                   <
>     DP     - DEWPOINT IN FAHRENHEIT                      <
>     RH     - RELATIVE HUMIDITY IN PERCENT                <
>     WIND   - DIRECTION AND SPEED IN MPH                  <
>     PRES   - MEAN SEA LEVEL PRESSURE IN INCHES OF HG     <
>     WCI    - WIND CHILL INDEX                            <
>     VSB    - VISIBILITY IN MILES                         <
>     HX     - HEAT INDEX                                  <
>     TC     - TEMPERATURE IN CELSIUS                      <
>     VRB    - VARIABLE WIND DIRECTION                     <
>                                                          <
>>>>>>>>>>>>>>>>>>>>>>>>>>>> KEY <<<<<<<<<<<<<<<<<<<<<<<<<<<




USA.gov is the U.S. government's official web portal to all federal, state and local government web resources and services.